Location: Newark
(47.2000°N, 1.7500°W)
Time: 20:41:13
(UTC+00:00)

Envisat - Visible Passes

Search period start: 15 September 2019 00:00
Search period end: 25 September 2019 00:00
Orbit: 764 x 766 km, 98.1° (Epoch: 15 September)

Date Brightness Start Highest point End Pass type
(mag) Time Alt. Az. Time Alt. Az. Time Alt. Az.
15 Sep 5.3 19:11:30 10° SSW 19:15:48 27° W 19:20:07 10° NW visible
17 Sep 5.9 19:38:25 10° SW 19:41:35 16° W 19:44:45 10° NW visible
18 Sep 4.9 18:59:52 10° SSW 19:04:27 33° W 19:09:04 10° NNW visible
20 Sep 5.8 19:26:28 10° SW 19:30:11 20° W 19:33:57 10° NW visible
21 Sep 4.5 18:48:20 10° SSW 18:53:08 41° W 18:57:57 10° NNW visible
22 Sep 6.2 19:54:11 10° WSW 19:56:02 12° W 19:57:55 10° WNW visible
23 Sep 5.4 19:14:40 10° SSW 19:18:50 25° W 19:23:00 10° NW visible
24 Sep 4.0 18:36:52 10° S 18:41:49 52° W 18:46:47 10° NNW visible
